Location: Apeadero de Los Molinos-Guadarrama
(40.7091°N, 4.0689°W)
Time: 12:24:12
(UTC+00:00)

Milstar 3 - Pass Details

Date: 14 May 2021
Orbit: 1089 x 5155 km, 28.3° (Epoch: 08 May)

Event Time Altitude Azimuth Distance (km) Brightness Sun altitude
Rises 21:27:44 0° 254° (WSW) 7,575 7.4 -19.2°
Reaches altitude 10° 21:33:54 10° 249° (WSW) 5,882 6.7 -20.0°
Maximum altitude 21:47:53 43° 185° (S) 2,443 4.2 -21.6°
Enters shadow 21:51:18 33° 143° (SE) 2,468 4.0 -22.0°
